Simultaneous Nadir Overpasses (SNOs) Predictions

Prediction of SNOs between NOAA-19 and TERRA Satellite Orbit:

Table of predicted SNOs for the next 14.0 days since TLE Epoch: 1/28/2024
Index Date (NOAA-19) Time (NOAA-19) Lat,Lon (NOAA-19) SZA (NOAA-19 ) Date (TERRA) Time (TERRA) Lat,Lon (TERRA) SZA (TERRA ) Distance(km) Time Diff (sec)
1 01/29/2024 06:04:08 80.36, 113.61 99.00 01/29/2024 06:04:56 80.36, 113.61 99.01 0.19 48
2 01/29/2024 06:55:09 -80.42, -78.23 80.91 01/29/2024 06:54:16 -80.43, -78.07 80.90 3.31 53
3 01/31/2024 09:54:23 -80.37,-123.72 81.57 01/31/2024 09:54:34 -80.37,-123.72 81.57 0.09 11
4 02/02/2024 12:53:46 -80.12,-172.17 82.62 02/02/2024 12:55:00 -80.02,-171.82 82.68 13.00 74
5 02/02/2024 13:44:29 80.39, -0.89 97.86 02/02/2024 13:44:10 80.39, -1.00 97.84 2.03 19
6 02/04/2024 16:43:44 80.32, -46.71 97.11 02/04/2024 16:44:27 80.33, -46.64 97.12 1.24 43
7 02/04/2024 17:34:44 -80.38, 121.42 82.81 02/04/2024 17:33:48 -80.38, 121.48 82.82 1.12 56
8 02/06/2024 20:33:57 -80.34, 76.07 83.52 02/06/2024 20:34:04 -80.34, 76.04 83.52 0.51 7
9 02/08/2024 23:33:11 -80.27, 30.33 84.30 02/08/2024 23:34:20 -80.29, 30.47 84.27 2.89 69
10 02/09/2024 00:24:05 80.33,-161.53 95.80 02/09/2024 00:23:39 80.33,-161.46 95.79 1.36 26
11 02/11/2024 03:23:18 80.29, 153.16 95.05 02/11/2024 03:23:54 80.29, 153.11 95.05 0.95 36



Historial Predications of SNOs between NOAA-19 and TERRA
